Weather History for Cincinnati, OH

Change the Weather History Date:

Thursday, November 22, 2012

  Actual Average Record
Temperature  
Mean Temperature 48 °F -  
Max Temperature 66 °F 50 °F 73 °F (2010)
Min Temperature 30 °F 32 °F 14 °F (1964)
Degree Days  
Heating Degree Days 17    
Moisture  
Dew Point 34 °F    
Average Humidity 84    
Maximum Humidity 100    
Minimum Humidity 39    
Precipitation  
Precipitation 0.00 in - - ()
Sea Level Pressure  
Sea Level Pressure 30.20 in    
Wind  
Wind Speed 1 mph (SSW)    
Max Wind Speed 13 mph    
Max Gust Speed -    
Visibility 4 miles    
Events Fog    
Averages and records for this station are not official NWS values.
T = Trace of Precipitation, MM = Missing Value Source: NWS Daily Summary

Daily Weather History Graph

Daily Weather History Graph

Search for Another Location

Airport:

Trip Planner

Search our weather history database for the weather conditions in past years. The results will help you decide how hot, cold, wet, or windy it might be!

Date:

Astronomy

Nov. 22, 2012 Rise Set
Actual Time 7:29 AM EST 5:18 PM EST
Civil Twilight 6:59 AM EST 5:47 PM EST
Nautical Twilight 6:27 AM EST 6:20 PM EST
Astronomical Twilight 5:55 AM EST 6:52 PM EST
Moon 2:01 PM EST 1:50 AM EST
Length of Visible Light 10h 47m
Length of Day
9h 49m
Waxing Gibbous, 71% of the Moon is Illuminated
Nov 22
Waxing Gibbous
Nov 28
Full
Dec 6
Last Quarter
Dec 13
New
Dec 20
First Quarter

Hourly Weather History & Observations

Time (EST) Temp. Windchill Dew Point Humidity Pressure Visibility Wind Dir Wind Speed Gust Speed Precip Events Conditions
12:53 AM 36.0 °F - 34.0 °F 93% 30.23 in 5.0 mi Calm Calm - N/A   Clear
1:22 AM 35.6 °F - 33.8 °F 93% 30.23 in 1.8 mi Calm Calm - N/A   Clear
1:33 AM 35.6 °F - 33.8 °F 93% 30.23 in 3.0 mi Calm Calm - N/A   Clear
1:53 AM 33.1 °F - 32.0 °F 96% 30.24 in 4.0 mi Calm Calm - N/A   Clear
2:08 AM 33.8 °F - 33.8 °F 100% 30.24 in 1.8 mi Calm Calm - N/A   Clear
2:30 AM 33.8 °F - 30.2 °F 87% 30.24 in 0.8 mi Calm Calm - N/A   Clear
2:34 AM 33.8 °F - 32.0 °F 93% 30.24 in 2.0 mi Calm Calm - N/A   Clear
2:46 AM 33.8 °F - 32.0 °F 93% 30.24 in 0.8 mi Calm Calm - N/A   Clear
2:53 AM 33.1 °F - 32.0 °F 96% 30.24 in 0.5 mi Calm Calm - N/A Fog Fog
3:11 AM 33.8 °F - 30.2 °F 87% 30.24 in 2.5 mi Calm Calm - N/A   Clear
3:18 AM 32.0 °F - 30.2 °F 93% 30.24 in 6.0 mi Calm Calm - N/A   Clear
3:26 AM 33.8 °F - 30.2 °F 87% 30.24 in 1.8 mi Calm Calm - N/A   Clear
3:36 AM 33.8 °F - 32.0 °F 93% 30.24 in 3.0 mi Calm Calm - N/A   Clear
3:40 AM 33.8 °F - 32.0 °F 93% 30.23 in 1.5 mi Calm Calm - N/A   Clear
3:50 AM 32.0 °F - 30.2 °F 93% 30.24 in 0.5 mi Calm Calm - N/A Fog Fog
3:53 AM 30.9 °F - 30.9 °F 100% 30.24 in 0.2 mi Calm Calm - N/A Fog Light Freezing Fog
4:23 AM 33.8 °F - 30.2 °F 87% 30.23 in 0.8 mi Calm Calm - N/A   Clear
4:30 AM 33.8 °F - 32.0 °F 93% 30.23 in 1.2 mi Calm Calm - N/A   Clear
4:53 AM 32.0 °F - 28.9 °F 88% 30.24 in 1.8 mi Calm Calm - N/A   Clear
5:02 AM 30.2 °F - 30.2 °F 100% 30.23 in 0.5 mi Calm Calm - N/A Fog Light Freezing Fog
5:09 AM 32.0 °F - 30.2 °F 93% 30.23 in 0.2 mi Calm Calm - N/A Fog Fog
5:16 AM 32.0 °F - 30.2 °F 93% 30.23 in 0.5 mi Calm Calm - N/A Fog Fog
5:37 AM 32.0 °F - 30.2 °F 93% 30.23 in 1.2 mi Calm Calm - N/A   Clear
5:45 AM 32.0 °F - 30.2 °F 93% 30.24 in 2.0 mi Calm Calm - N/A   Clear
5:53 AM 33.1 °F - 32.0 °F 96% 30.25 in 2.0 mi Calm Calm - N/A   Clear
6:07 AM 30.2 °F - 30.2 °F 100% 30.24 in 1.0 mi Calm Calm - N/A   Clear
6:23 AM 32.0 °F - 30.2 °F 93% 30.24 in 2.5 mi Calm Calm - N/A   Clear
6:28 AM 30.2 °F - 30.2 °F 100% 30.24 in 0.8 mi Calm Calm - N/A   Clear
6:46 AM 32.0 °F - 30.2 °F 93% 30.24 in 1.0 mi Calm Calm - N/A   Clear
6:53 AM 32.0 °F - 30.0 °F 92% 30.25 in 4.0 mi Calm Calm - N/A   Partly Cloudy
7:53 AM 30.9 °F - 30.9 °F 100% 30.25 in 3.0 mi Calm Calm - N/A   Clear
8:53 AM 36.0 °F - 34.0 °F 93% 30.25 in 3.0 mi Calm Calm - N/A   Clear
9:53 AM 43.0 °F - 39.0 °F 86% 30.24 in 5.0 mi Calm Calm - N/A   Clear
10:53 AM 51.1 °F - 42.1 °F 71% 30.23 in 9.0 mi Calm Calm - N/A   Clear
11:53 AM 60.1 °F - 39.9 °F 47% 30.19 in 10.0 mi South 5.8 mph - N/A   Clear
12:53 PM 64.0 °F - 42.1 °F 45% 30.15 in 10.0 mi South 9.2 mph - N/A   Clear
1:53 PM 64.9 °F - 39.9 °F 40% 30.12 in 10.0 mi SSW 12.7 mph - N/A   Clear
2:53 PM 66.9 °F - 41.0 °F 39% 30.10 in 10.0 mi SSW 10.4 mph - N/A   Clear
3:53 PM 64.0 °F - 39.9 °F 41% 30.10 in 10.0 mi SSW 10.4 mph - N/A   Clear
4:53 PM 59.0 °F - 39.9 °F 49% 30.09 in 10.0 mi SSW 6.9 mph - N/A   Clear
5:53 PM 51.1 °F - 39.0 °F 63% 30.09 in 10.0 mi Calm Calm - N/A   Clear
6:53 PM 48.9 °F - 39.9 °F 71% 30.08 in 10.0 mi Calm Calm - N/A   Clear
7:53 PM 45.0 °F - 39.0 °F 80% 30.07 in 10.0 mi Calm Calm - N/A   Clear
8:53 PM 45.0 °F - 39.9 °F 82% 30.06 in 10.0 mi Calm Calm - N/A   Clear
9:53 PM 43.0 °F - 39.0 °F 86% 30.06 in 10.0 mi Calm Calm - N/A   Clear
10:53 PM 39.9 °F - 36.0 °F 86% 30.05 in 10.0 mi Calm Calm - N/A   Clear
11:53 PM 45.0 °F 42.6 °F 39.0 °F 80% 30.04 in 10.0 mi West 4.6 mph - N/A   Clear